Hourly Data Report for November 14, 2019

OTTAWA INTL A
ONTARIO
Current Station Operator: NAVCAN

45°19'00.000" N
75°40'00.000" W
114.90 m
6106001
71628
YOW

Download Data

Hourly Data (November 2019)
Hourly Data Report for November 14, 2019
TIME Temp Definition
°C
Dew Point Definition
°C
Rel Hum Definition
%
Wind Dir Definition
10's deg

Wind Spd Definition
km/h
Visibility Definition
km
Stn Press Definition
kPa
Hmdx Definition


Wind Chill Definition


Weather Definition


00:00 -10.1 -12.9 80 13 9 24.1 101.38   -15 LegendNANA
01:00 -10.0 -13.0 79 11 13 24.1 101.32   -16 Cloudy
02:00 -9.8 -13.1 77 11 12 24.1 101.32   -16 LegendNANA
03:00 -9.3 -12.2 80 12 16 12.9 101.23   -16 Snow
04:00 -9.5 -11.5 86 11 15 11.3 101.12   -16 Snow
05:00 -9.1 -10.8 88 9 15 8.1 101.05   -16 Snow
06:00 -9.3 -10.8 89 10 16 24.1 100.98   -16 LegendNANA
07:00 -8.7 -10.3 88 8 12 4.8 100.98   -14 Snow
08:00 -8.1 -9.7 89 9 18 4.8 100.96   -15 Snow
09:00 -6.8 -9.1 84 11 16 9.7 100.96   -13 Snow
10:00 -5.9 -8.7 81 13 15 6.4 100.92   -12 Snow
11:00 -4.7 -7.1 84 13 14 9.7 100.88   -10 Snow
12:00 -3.8 -5.8 86 14 13 9.7 100.80   -9 Snow
13:00 -2.9 -4.8 87 15 14 9.7 100.73   -8 Snow
14:00 -2.3 -4.8 83 16 17 9.7 100.67   -8 Snow
15:00 -2.0 -4.8 81 16 19 9.7 100.61   -8 Snow
16:00 -1.7 -4.2 84 15 17 12.9 100.59   -7 Cloudy
17:00 -1.5 -4.0 84 17 14 16.1 100.59   -6 LegendNANA
18:00 -1.0 -3.0 86 19 16 24.1 100.60   -6 LegendNANA
19:00 -0.9 -2.8 87 21 14 16.1 100.60   -5 Cloudy
20:00 -0.9 -3.1 85 20 13 16.1 100.59   -5 LegendNANA
21:00 -1.0 -3.3 84 19 13 12.9 100.57   -5 LegendNANA
22:00 -1.1 -3.5 84 19 14 16.1 100.55   -6 Cloudy
23:00 -0.8 -3.8 81 20 19 16.1 100.50   -6 LegendNANA

Notes on Data Quality.

Legend

  • E = Estimated
  • M = Missing
  • NA = Not Available*
  • [empty] = Indicates an unobserved value
Date modified: